Home   Weather   King's Lynn   Past weeks

Flag for United Kingdom Past Weather in King's Lynn, England, United Kingdom — Yesterday and Last 2 Weeks

52 °F


Feels Like: 51 °F
Forecast: 49 / 60 °F
Wind: 5 mph from Southwest

Location: Marham

Current Time: Oct 29, 2016 at 12:44:24 AM

Latest Report: Oct 28, 2016 at 11:50 PM

Visibility: 4 mi

Pressure: 30.54 "Hg

Humidity: 94%

Dew Point: 50 °F

Location of King's LynnLocation

Past Weather in King's Lynn — Graph


King's Lynn Temperature Yesterday

Maximum temperature yesterday: 61 °F (at 12:50 PM)
Minimum temperature yesterday: 52 °F (at 1:50 AM)
Average temperature yesterday: 55 °F

High & Low Weather Summary for the Past Weeks

High63 °F (Oct 16, 2:50 PM)100% (Oct 15, 3:50 AM)30.54 "Hg (Oct 15, 3:50 AM)
Low39 °F (Oct 25, 12:50 AM)54% (Oct 18, 3:50 PM)29.65 "Hg (Oct 15, 1:50 AM)
Average51 °F88%30.06 "Hg
* Reported Oct 13 10:50 PM — Oct 28 10:50 PM, King's Lynn, Weather by CustomWeather, © 2016

Note: Actual official high and low records may vary slightly from our data, if they occured in-between our weather recording intervals... More about our weather records


King's Lynn Weather History for the Previous 24 Hours

Scroll right to see more
Time TempWeatherWind HumidityBarometerVisibility
10:50 PM
Fri, Oct 28
52 °FFog.6 mph94%30.54 "Hg6 mi
9:50 PM54 °FPassing clouds.3 mph94%30.54 "HgN/A
8:50 PM54 °FPassing clouds.2 mph94%30.54 "HgN/A
7:50 PM55 °FOvercast.2 mph88%30.54 "HgN/A
6:50 PM54 °FPassing clouds.5 mph94%30.54 "HgN/A
5:50 PM55 °FPassing clouds.5 mph94%30.51 "HgN/A
4:50 PM59 °FScattered clouds.3 mph82%30.51 "HgN/A
3:50 PM61 °FBroken clouds.8 mph77%30.51 "HgN/A
2:50 PM61 °FPartly sunny.8 mph77%30.51 "HgN/A
1:50 PM61 °FPartly sunny.9 mph77%30.51 "HgN/A
12:50 PM61 °FBroken clouds.10 mph77%30.51 "HgN/A
11:50 AM59 °FPartly sunny.13 mph82%30.48 "HgN/A
10:50 AM57 °FPartly sunny.12 mph82%30.48 "HgN/A
9:50 AM55 °FSunny.9 mph88%30.48 "Hg10 mi
8:50 AM54 °FSunny.8 mph88%30.45 "Hg10 mi
7:50 AM52 °FSunny.8 mph94%30.42 "Hg10 mi
6:50 AM52 °FPassing clouds.8 mph94%30.42 "HgN/A
5:50 AM52 °FPassing clouds.12 mph94%30.39 "HgN/A
4:50 AM52 °FPassing clouds.8 mph94%30.39 "HgN/A
3:50 AM52 °FOvercast.10 mph94%30.39 "HgN/A
2:50 AM52 °FOvercast.10 mph94%30.39 "HgN/A
1:50 AM52 °FOvercast.12 mph94%30.39 "HgN/A
12:50 AM54 °FClear.13 mph88%30.39 "Hg10 mi
Weather by CustomWeather, © 2016

See weather overviewHow to use our weather pages